Regional Weather Roundup
Issued by NWS

Home | Current Version | Previous Version | Text Only | Print | Product List | Glossary Off
Versions: 1 2 3 4 5 6 7 8 9 10 11 12 13 14 15 16 17 18 19 20 21 22 23 24 25 26 27 28 29 30 31 32 33 34 35 36 37 38 39 40 41 42 43 44 45 46 47 48 49 50

000
ASUS43 KLSX 161157
RWRMO

WEATHER SUMMARY FOR MISSOURI
NATIONAL WEATHER SERVICE SPRINGFIELD MO
600 AM CST TUE JAN 16 2018

NOTE: "FAIR" INDICATES FEW OR NO CLOUDS BELOW 12,000 FEET WITH NO
       SIGNIFICANT WEATHER AND/OR OBSTRUCTIONS TO VISIBILITY.
       CURRENT SKY AND/OR WEATHER CONDITIONS ARE NOT AVAILABLE FOR
       CHILLICOTHE AND FARMINGTON.

MOZ001>031-035>038-043-044-053-054-161300-
...NORTHERN AND WESTERN MISSOURI...

CITY           SKY/WX    TMP DP  RH WIND       PRES   REMARKS
KANSAS CTY INT CLEAR     -5 -11  75 NW7       30.70S WCI -19
6HR MIN TEMP:  -5; 6HR MAX TEMP:  -1;

LEE`S SUMMIT   CLEAR     -3 -10  72 NW14      30.70R WCI -22
6HR MIN TEMP:  -3; 6HR MAX TEMP:   1;

ST JOSEPH        N/A    N/A N/A N/A MISG      30.74S
CHILLICOTHE      N/A     -4 -12  68 NW7       30.70R WCI -18
6HR MIN TEMP:  -4; 6HR MAX TEMP:  -1;


$$
MOZ066>068-077>081-088>096-101>105-161300-
...SOUTHWEST MISSOURI...

CITY           SKY/WX    TMP DP  RH WIND       PRES   REMARKS
SPRINGFIELD    CLOUDY    -3  -9  75 NW5       30.65R WCI -13
6HR MIN TEMP:  -6; 6HR MAX TEMP:   3;

JOPLIN         CLOUDY    -3  -9  75 NW7       30.74R WCI -16
6HR MIN TEMP:  -3; 6HR MAX TEMP:   4;


$$
MOZ032>034-039>042-045>050-055>058-069>072-161300-
...CENTRAL MISSOURI...

CITY           SKY/WX    TMP DP  RH WIND       PRES   REMARKS
COLUMBIA       NOT AVBL
JEFFERSON CITY PTCLDY    -2 -10  69 W7        30.71R WCI -15
6HR MIN TEMP:  -2; 6HR MAX TEMP:   4;

ROLLA          PTCLDY    -4  -9  79 NW9       30.62R WCI -20
6HR MIN TEMP:  -4; 6HR MAX TEMP:   2;

SEDALIA        PTCLDY    -3  -8  79 NW9       30.68R WCI -19
6HR MIN TEMP:  -3; 6HR MAX TEMP:   2;

WARRENSBURG    CLEAR     -4  -9  77 W7        30.72R WCI -18

$$
MOZ051-052-059>065-161300-
...EAST CENTRAL MISSOURI...

CITY           SKY/WX    TMP DP  RH WIND       PRES   REMARKS
ST LOUIS INTL  PTCLDY     0  -8  69 W14       30.64R WCI -19
6HR MIN TEMP:   0; 6HR MAX TEMP:   5; 6HR PCP: TRACE;


$$
MOZ072>076-082>087-097>100-106>115-161300-
...SOUTH CENTRAL AND SOUTHEAST MISSOURI...

CITY           SKY/WX    TMP DP  RH WIND       PRES   REMARKS
CAPE GIRARDEAU CLOUDY     6  -3  66 N12       30.66R WCI  -9
6HR MIN TEMP:   6; 6HR MAX TEMP:  14;

POPLAR BLUFF   FAIR       9  -6  50 NW14G20   30.68R WCI  -7
6HR MIN TEMP:   7; 6HR MAX TEMP:  16;


$$



USA.gov is the U.S. government's official web portal to all federal, state and local government web resources and services.